Location: Fort Wayne
(41.1310°N, 85.1290°W)
Time: 00:38:12
(UTC-05:00)

SR - Visible Passes

Search period start: 12 February 2016 00:00
Search period end: 22 February 2016 00:00
Orbit: 575 x 884 km, 66.7° (Epoch: 11 February)

Date Brightness Start Highest point End Pass type
(mag) Time Alt. Az. Time Alt. Az. Time Alt. Az.
12 Feb ? 19:45:09 10° NW 19:47:19 12° NNW 19:49:28 10° NNW visible
13 Feb ? 18:53:18 10° W 18:57:24 19° NW 19:01:29 10° N visible
15 Feb ? 18:59:25 10° WNW 19:01:43 12° NW 19:04:01 10° N visible
